This is the latest recevied weather packets stored in our database for station/object KC4GS-13. If no packets are shown the sender has not sent any weather packets the latest 10 day(s).
| Time | Temp. | Humidity | Pressure | Rain* | Wind** | Luminosity | Snow |
|---|---|---|---|---|---|---|---|
| 1787509625 | 33.33° C | 53% | 1015.1 hPa | 0 mm | - | 688 W/m² | - |
| 1787509322 | 33.89° C | 52% | 1015.2 hPa | 0 mm | - | 109 W/m² | - |
| 1787509021 | 33.89° C | 52% | 1015.2 hPa | 0 mm | - | 196 W/m² | - |
| 1787508717 | 33.89° C | 52% | 1015.2 hPa | 0 mm | - | 161 W/m² | - |
| 1787508412 | 34.44° C | 50% | 1015.3 hPa | 0 mm | - | 125 W/m² | - |
| 1787508109 | 34.44° C | 50% | 1015.5 hPa | 0 mm | - | 145 W/m² | - |
| 1787507805 | 34.44° C | 51% | 1015.6 hPa | 0 mm | - | 747 W/m² | - |
| 1787507500 | 33.89° C | 52% | 1015.5 hPa | 0 mm | - | 754 W/m² | - |
| 1787507196 | 33.33° C | 52% | 1015.8 hPa | 0 mm | - | 130 W/m² | - |
| 1787506892 | 33.89° C | 51% | 1015.6 hPa | 0 mm | - | 122 W/m² | - |
| 1787506588 | 33.89° C | 51% | 1015.7 hPa | 0 mm | - | 160 W/m² | - |
| 1787506284 | 33.89° C | 49% | 1015.8 hPa | 0 mm | - | 778 W/m² | - |
| 1787505978 | 34.44° C | 50% | 1015.8 hPa | 0 mm | - | 484 W/m² | - |
| 1787505674 | 33.89° C | 50% | 1016 hPa | 0 mm | - | 295 W/m² | - |
| 1787505369 | 33.89° C | 49% | 1015.9 hPa | 0 mm | - | 655 W/m² | - |
| 1787505064 | 33.89° C | 49% | 1016.1 hPa | 0 mm | - | 695 W/m² | - |
| 1787504758 | 33.89° C | 48% | 1016 hPa | 0 mm | - | 409 W/m² | - |
| 1787504455 | 33.89° C | 50% | 1016.3 hPa | 0 mm | - | 304 W/m² | - |
| 1787504150 | 33.89° C | 52% | 1016.2 hPa | 0 mm | - | 198 W/m² | - |
| 1787503845 | 33.33° C | 52% | 1016.4 hPa | 0 mm | - | 186 W/m² | - |
| 1787503541 | 33.33° C | 55% | 1016.5 hPa | 0 mm | - | 131 W/m² | - |
| 1787503237 | 32.78° C | 55% | 1016.5 hPa | 0 mm | - | 155 W/m² | - |
| 1787502932 | 32.78° C | 54% | 1016.5 hPa | 0 mm | - | 165 W/m² | - |
| 1787502628 | 32.78° C | 55% | 1016.6 hPa | 0 mm | - | 264 W/m² | - |
| 1787502327 | 32.78° C | 54% | 1016.6 hPa | 0 mm | - | 124 W/m² | - |
* Rain latest hour (hover to see other rain measurements)
** Current wind speed in m/s (hover to see current wind gust speed)